GW1210 Weather Reports


Display with metric or nautical units.
time (UTC)temp
F
wind
direction
speed
MPH
gust
MPH
rain 1hr
in
rain 24hr
in
rain mn
in
humidity
%
barometer
mb
20260505225635 65 263 10.0 14.0 0.00 0.00 0.00 70 1008.6
20260505225131 65 234 6.0 8.0 0.00 0.00 0.00 70 1008.6
20260505224628 65 220 5.0 6.0 0.00 0.00 0.00 69 1008.7
20260505224126 66 198 5.0 8.0 0.00 0.00 0.00 69 1008.6
20260505223623 66 174 7.0 11.0 0.00 0.00 0.00 68 1008.6
20260505223119 66 246 10.0 15.0 0.00 0.00 0.00 68 1008.5
20260505222615 67 329 5.0 8.0 0.00 0.00 0.00 67 1008.5
20260505222111 67 219 11.0 15.0 0.00 0.00 0.00 66 1008.2
20260505221608 67 149 4.0 6.0 0.00 0.00 0.00 66 1008.4
20260505221105 68 188 6.0 8.0 0.00 0.00 0.00 66 1008.0
20260505220602 68 171 6.0 8.0 0.00 0.00 0.00 66 1008.2
20260505220100 68 73 3.0 5.0 0.00 0.00 0.00 65 1008.2
20260505215558 68 196 8.0 13.0 0.00 0.00 0.00 65 1008.4
20260505215055 68 44 5.0 8.0 0.00 0.00 0.00 65 1008.2
20260505214554 68 216 8.0 14.0 0.00 0.00 0.00 65 1008.2
20260505214050 68 206 6.0 8.0 0.00 0.00 0.00 65 1008.3
20260505213548 68 188 9.0 11.0 0.00 0.00 0.00 66 1008.3
20260505213044 68 229 9.0 14.0 0.00 0.00 0.00 65 1008.3
20260505212540 68 244 5.0 6.0 0.00 0.00 0.00 66 1007.9
20260505212038 68 249 3.0 5.0 0.00 0.00 0.00 66 1008.1
20260505211535 68 223 9.0 14.0 0.00 0.00 0.00 66 1008.0
20260505211031 67 239 6.0 8.0 0.00 0.00 0.00 67 1008.1
20260505210528 68 202 9.0 10.0 0.00 0.00 0.00 67 1008.1
20260505210026 68 199 8.0 13.0 0.00 0.00 0.00 68 1008.0
20260505205523 68 205 4.0 6.0 0.00 0.00 0.00 67 1008.2
20260505205020 68 183 4.0 5.0 0.00 0.00 0.00 67 1008.3
20260505204518 68 128 3.0 3.0 0.00 0.00 0.00 67 1008.2
20260505204015 68 237 2.0 3.0 0.00 0.00 0.00 67 1008.2
20260505203511 69 118 5.0 7.0 0.00 0.00 0.00 66 1008.4
20260505203008 69 117 3.0 3.0 0.00 0.00 0.00 66 1007.9
20260505202505 69 185 5.0 7.0 0.00 0.00 0.00 67 1008.2
20260505202001 68 85 6.0 10.0 0.00 0.00 0.00 67 1008.3
20260505201458 68 263 8.0 10.0 0.00 0.00 0.00 67 1008.2
20260505200955 69 209 7.0 10.0 0.00 0.00 0.00 66 1008.3
20260505200453 70 210 7.0 9.0 0.00 0.00 0.00 65 1008.3
20260505195948 70 86 2.0 3.0 0.00 0.00 0.00 65 1008.5
20260505195446 69 223 7.0 10.0 0.00 0.00 0.00 66 1008.4
20260505194943 71 266 4.0 5.0 0.00 0.00 0.00 64 1008.4
20260505194441 71 231 6.0 13.0 0.00 0.00 0.00 64 1008.6
20260505193940 70 187 7.0 9.0 0.00 0.00 0.00 64 1008.8
20260505193438 70 301 2.0 3.0 0.00 0.00 0.00 65 1008.7
20260505192935 69 155 7.0 9.0 0.00 0.00 0.00 66 1008.7
20260505192434 70 77 2.0 2.0 0.00 0.00 0.00 66 1008.8
20260505191931 69 180 5.0 7.0 0.00 0.00 0.00 67 1008.9
20260505191430 70 189 9.0 9.0 0.00 0.00 0.00 65 1009.0
20260505190926 69 221 5.0 8.0 0.00 0.00 0.00 68 1009.1
20260505190421 68 252 7.0 10.0 0.00 0.00 0.00 68 1009.4
20260505185917 69 164 10.0 13.0 0.00 0.00 0.00 67 1009.5
20260505185415 69 238 6.0 8.0 0.00 0.00 0.00 66 1009.7
20260505184910 68 112 2.0 5.0 0.00 0.00 0.00 68 1009.3
20260505184407 69 122 5.0 8.0 0.00 0.00 0.00 67 1009.7
20260505183904 68 129 7.0 9.0 0.00 0.00 0.00 67 1009.4
20260505183401 69 276 6.0 9.0 0.00 0.00 0.00 67 1009.4
20260505182858 69 199 9.0 13.0 0.00 0.00 0.00 67 1009.7
20260505182355 70 253 5.0 7.0 0.00 0.00 0.00 66 1009.7
20260505181851 69 163 7.0 8.0 0.00 0.00 0.00 68 1009.8
20260505181349 69 164 6.0 9.0 0.00 0.00 0.00 68 1009.7
20260505180845 69 167 7.0 9.0 0.00 0.00 0.00 67 1009.7
20260505180341 70 143 7.0 8.0 0.00 0.00 0.00 67 1009.8
20260505175838 70 153 5.0 10.0 0.00 0.00 0.00 68 1009.7
20260505175334 70 111 3.0 3.0 0.00 0.00 0.00 68 1009.8
20260505174831 69 159 6.0 8.0 0.00 0.00 0.00 68 1009.9
20260505174329 70 251 9.0 13.0 0.00 0.00 0.00 67 1009.9
20260505173824 68 194 7.0 9.0 0.00 0.00 0.00 70 1010.0
20260505173321 68 160 6.0 9.0 0.00 0.00 0.00 71 1009.8
20260505172819 69 298 3.0 6.0 0.00 0.00 0.00 69 1009.7
20260505172316 68 164 10.0 13.0 0.00 0.00 0.00 71 1009.9
20260505171815 68 185 7.0 9.0 0.00 0.00 0.00 70 1010.0
20260505171313 69 190 8.0 11.0 0.00 0.00 0.00 69 1009.8
20260505170809 69 230 3.0 5.0 0.00 0.00 0.00 69 1010.2
20260505170306 70 161 7.0 9.0 0.00 0.00 0.00 68 1010.0
20260505165801 69 261 4.0 8.0 0.00 0.00 0.00 67 1010.2
20260505165257 70 171 6.0 8.0 0.00 0.00 0.00 66 1010.2
20260505164753 71 187 7.0 8.0 0.00 0.00 0.00 66 1010.0
20260505164250 70 114 5.0 6.0 0.00 0.00 0.00 66 1010.0
20260505163749 71 150 5.0 7.0 0.00 0.00 0.00 65 1010.1
20260505163247 70 241 3.0 3.0 0.00 0.00 0.00 65 1010.1
20260505162744 70 205 6.0 7.0 0.00 0.00 0.00 65 1010.2
20260505162241 70 151 3.0 3.0 0.00 0.00 0.00 65 1010.4
20260505161738 70 130 6.0 8.0 0.00 0.00 0.00 68 1010.6
20260505161235 70 184 8.0 9.0 0.00 0.00 0.00 67 1010.5
20260505160732 69 167 5.0 8.0 0.00 0.00 0.00 68 1010.7
20260505160230 71 137 3.0 5.0 0.00 0.00 0.00 66 1010.6
20260505153209 69 163 4.0 6.0 0.00 0.00 0.00 68 1010.7
20260505152706 69 121 5.0 6.0 0.00 0.00 0.00 68 1010.9
20260505152202 68 110 5.0 7.0 0.00 0.00 0.00 69 1010.9
20260505151657 69 105 2.0 2.0 0.00 0.00 0.00 68 1010.9
20260505151156 69 321 3.0 5.0 0.00 0.00 0.00 69 1010.9
20260505150651 69 193 5.0 6.0 0.00 0.00 0.00 68 1011.1
20260505150149 68 237 4.0 5.0 0.00 0.00 0.00 69 1011.1
20260505140617 68 199 5.0 7.0 0.00 0.00 0.00 67 1010.9
20260505140114 69 257 5.0 7.0 0.00 0.00 0.00 65 1010.8
20260505125030 65 207 4.0 6.0 0.00 0.00 0.00 74 1010.6
20260505124527 64 306 4.0 5.0 0.00 0.00 0.00 76 1010.8
20260505124023 64 192 5.0 6.0 0.00 0.00 0.00 76 1010.7
20260505123520 63 249 2.0 2.0 0.00 0.00 0.00 77 1010.4
20260505123016 63 296 3.0 3.0 0.00 0.00 0.00 77 1010.7
20260505122513 62 246 1.0 2.0 0.00 0.00 0.00 79 1010.6
20260505122010 62 238 1.0 2.0 0.00 0.00 0.00 80 1010.6
20260505121506 62 229 2.0 3.0 0.00 0.00 0.00 80 1010.6
20260505121003 61 333 1.0 1.0 0.00 0.00 0.00 82 1010.7
20260505120459 61 308 3.0 3.0 0.00 0.00 0.00 83 1010.7
20260505115958 60 307 2.0 2.0 0.00 0.00 0.00 83 1010.9
20260505115455 59 269 1.0 2.0 0.00 0.00 0.00 86 1010.9
20260505114953 59 321 0.0 0.0 0.00 0.00 0.00 87 1010.9
20260505114449 58 275 2.0 3.0 0.00 0.00 0.00 89 1010.7
20260505113946 57 96 1.0 2.0 0.00 0.00 0.00 89 1010.7
20260505113442 57 10 1.0 2.0 0.00 0.00 0.00 91 1010.9
20260505112937 56 321 1.0 1.0 0.00 0.00 0.00 91 1010.9
20260505112435 56 356 1.0 1.0 0.00 0.00 0.00 93 1011.0
20260505111932 55 343 1.0 1.0 0.00 0.00 0.00 93 1010.9
20260505111426 55 346 0.0 0.0 0.00 0.00 0.00 94 1010.9
20260505110923 55 289 0.0 0.0 0.00 0.00 0.00 95 1011.1
20260505110420 54 353 0.0 1.0 0.00 0.00 0.00 96 1011.1
20260505101850 52 356 1.0 1.0 0.00 0.00 0.00 97 1010.4
20260505101345 52 18 0.0 1.0 0.00 0.00 0.00 97 1010.1
20260505100841 52 16 0.0 0.0 0.00 0.00 0.00 97 1010.2
20260505100338 52 2 0.0 0.0 0.00 0.00 0.00 97 1009.9
20260505095834 52 54 1.0 2.0 0.00 0.00 0.00 97 1010.0
20260505095332 52 10 0.0 0.0 0.00 0.00 0.00 97 1009.9
20260505094827 52 13 0.0 0.0 0.00 0.00 0.00 97 1009.9
20260505094325 52 12 0.0 1.0 0.00 0.00 0.00 97 1010.1
20260505093820 52 24 0.0 0.0 0.00 0.00 0.00 97 1009.8
20260505093318 52 3 0.0 0.0 0.00 0.00 0.00 97 1010.0
20260505092814 52 3 0.0 0.0 0.00 0.00 0.00 97 1009.9
20260505092313 52 6 0.0 0.0 0.00 0.00 0.00 97 1010.0
20260505091810 52 7 0.0 0.0 0.00 0.00 0.00 97 1009.9
20260505091308 52 7 1.0 1.0 0.00 0.00 0.00 97 1010.0
20260505090806 52 4 0.0 0.0 0.00 0.00 0.00 97 1010.2
20260505090304 52 359 0.0 0.0 0.00 0.00 0.00 97 1010.0
20260505085801 52 351 1.0 1.0 0.00 0.00 0.00 97 1009.8
20260505085259 52 1 0.0 0.0 0.00 0.00 0.00 96 1009.9
20260505084755 52 6 0.0 0.0 0.00 0.00 0.00 96 1009.8
20260505084255 52 5 0.0 0.0 0.00 0.00 0.00 96 1009.8
20260505083751 53 16 0.0 0.0 0.00 0.00 0.00 96 1009.9
20260505083248 53 23 0.0 0.0 0.00 0.00 0.00 96 1009.8
20260505082744 53 42 1.0 1.0 0.00 0.00 0.00 96 1009.7
20260505082242 53 63 0.0 1.0 0.00 0.00 0.00 96 1009.8
20260505081737 53 122 1.0 2.0 0.00 0.00 0.00 96 1010.0
20260505081235 53 36 1.0 1.0 0.00 0.00 0.00 96 1010.1
20260505080732 53 53 2.0 2.0 0.00 0.00 0.00 96 1010.0
20260505080227 53 49 1.0 2.0 0.00 0.00 0.00 95 1010.0
20260505075723 53 19 1.0 1.0 0.00 0.00 0.00 95 1009.9
20260505075221 53 82 0.0 0.0 0.00 0.00 0.00 95 1009.9
20260505074718 53 48 1.0 1.0 0.00 0.00 0.00 95 1009.8
20260505074215 53 32 0.0 1.0 0.00 0.00 0.00 95 1009.8
20260505073712 53 103 2.0 2.0 0.00 0.00 0.00 95 1009.9
20260505073210 53 32 1.0 1.0 0.00 0.00 0.00 95 1010.1
20260505072706 53 83 2.0 2.0 0.00 0.00 0.00 95 1009.9
20260505072202 53 73 3.0 3.0 0.00 0.00 0.00 95 1009.8
20260505071658 53 48 0.0 0.0 0.00 0.00 0.00 95 1010.0
20260505071156 53 78 0.0 1.0 0.00 0.00 0.00 95 1010.0
20260505070653 53 175 3.0 3.0 0.00 0.00 0.00 95 1009.9
20260505070149 53 130 3.0 5.0 0.00 0.00 0.00 94 1009.9
20260505065645 53 161 3.0 3.0 0.00 0.00 0.00 94 1010.0
20260505065142 53 134 3.0 3.0 0.00 0.00 0.00 94 1009.9
20260505064639 53 318 2.0 3.0 0.00 0.00 0.00 94 1010.0
20260505064137 53 335 0.0 1.0 0.00 0.00 0.00 94 1009.9
20260505063634 53 301 2.0 3.0 0.00 0.00 0.00 94 1010.0
20260505063130 53 84 1.0 1.0 0.00 0.00 0.00 94 1010.2
20260505062626 53 171 3.0 3.0 0.00 0.00 0.00 94 1010.0
20260505062124 53 155 2.0 5.0 0.00 0.00 0.00 94 1010.1
20260505061621 53 179 1.0 2.0 0.00 0.00 0.00 93 1010.1
20260505061119 53 86 0.0 1.0 0.00 0.00 0.00 93 1010.2
20260505060616 54 139 4.0 5.0 0.00 0.00 0.00 93 1010.1
20260505060113 54 151 2.0 2.0 0.00 0.00 0.00 93 1010.2
20260505055608 54 112 3.0 3.0 0.00 0.00 0.00 93 1010.4
20260505055105 54 85 1.0 1.0 0.00 0.00 0.00 93 1010.3
20260505054602 54 141 5.0 6.0 0.00 0.00 0.00 93 1010.4
20260505054101 54 158 2.0 2.0 0.00 0.00 0.00 92 1010.4
20260505053557 54 121 3.0 5.0 0.00 0.00 0.00 92 1010.5
20260505053054 54 57 1.0 2.0 0.00 0.00 0.00 92 1010.6
20260505052551 54 66 2.0 2.0 0.00 0.00 0.00 92 1010.6
20260505052049 54 59 1.0 1.0 0.00 0.00 0.00 91 1010.4
20260505051545 54 330 2.0 3.0 0.00 0.00 0.00 91 1010.5
20260505051043 54 53 0.0 0.0 0.00 0.00 0.00 90 1010.5
20260505050541 54 159 3.0 3.0 0.00 0.00 0.00 90 1010.4
20260505041509 55 88 0.0 1.0 0.00 0.00 0.00 85 1010.7
20260505041006 55 136 3.0 3.0 0.00 0.00 0.00 85 1010.9
20260505040503 56 233 1.0 2.0 0.00 0.00 0.00 84 1010.7
20260505040000 56 128 1.0 1.0 0.00 0.00 0.00 83 1010.6
20260505035456 56 136 1.0 2.0 0.00 0.00 0.00 82 1010.6
20260505034953 56 132 3.0 5.0 0.00 0.00 0.00 81 1010.7
20260505034450 57 25 2.0 3.0 0.00 0.00 0.00 79 1010.7
20260505033947 57 331 1.0 1.0 0.00 0.00 0.00 78 1010.5
20260505033444 57 19 2.0 3.0 0.00 0.00 0.00 77 1010.7
20260505032942 58 315 1.0 1.0 0.00 0.00 0.00 76 1010.7
20260505032439 58 325 2.0 2.0 0.00 0.00 0.00 76 1010.8
20260505031935 58 224 2.0 2.0 0.00 0.00 0.00 76 1010.8
20260505031432 57 219 5.0 7.0 0.00 0.00 0.00 76 1010.9
20260505030929 57 294 2.0 3.0 0.00 0.00 0.00 77 1010.8
20260505030425 57 225 3.0 3.0 0.00 0.00 0.00 77 1010.7
20260505025920 57 323 1.0 2.0 0.00 0.00 0.00 78 1010.8
20260505025418 56 276 3.0 5.0 0.00 0.00 0.00 79 1010.9
20260505024917 56 330 1.0 1.0 0.00 0.00 0.00 80 1010.9
20260505024414 56 277 2.0 2.0 0.00 0.00 0.00 80 1011.0
20260505023911 57 334 0.0 0.0 0.00 0.00 0.00 79 1010.9
20260505023408 57 337 0.0 1.0 0.00 0.00 0.00 79 1010.7
20260505022905 57 326 1.0 1.0 0.00 0.00 0.00 79 1011.0
20260505022403 56 290 2.0 2.0 0.00 0.00 0.00 80 1010.9
20260505021859 56 286 3.0 5.0 0.00 0.00 0.00 80 1011.0
20260505021356 56 330 1.0 1.0 0.00 0.00 0.00 80 1010.9
20260505020852 56 319 1.0 2.0 0.00 0.00 0.00 80 1011.0
20260505020347 56 269 0.0 2.0 0.00 0.00 0.00 79 1011.1
20260505015844 57 212 4.0 6.0 0.00 0.00 0.00 78 1010.9
20260505015341 57 329 1.0 1.0 0.00 0.00 0.00 77 1011.0
20260505014839 57 244 2.0 3.0 0.00 0.00 0.00 76 1010.8
20260505014336 57 293 3.0 5.0 0.00 0.00 0.00 75 1010.8
20260505013832 58 315 1.0 1.0 0.00 0.00 0.00 73 1010.9
20260505013329 58 279 3.0 3.0 0.00 0.00 0.00 72 1010.7
20260505012828 59 232 4.0 6.0 0.00 0.00 0.00 70 1010.8
20260505012325 59 276 3.0 3.0 0.00 0.00 0.00 69 1010.6
20260505011821 58 317 2.0 3.0 0.00 0.00 0.00 70 1010.6
20260505011318 59 318 1.0 1.0 0.00 0.00 0.00 70 1010.5
20260505010814 58 253 3.0 3.0 0.00 0.00 0.00 71 1010.5
20260505010310 58 316 1.0 1.0 0.00 0.00 0.00 71 1010.3
20260505005806 58 220 3.0 5.0 0.00 0.00 0.00 72 1010.3
20260505005304 58 206 5.0 7.0 0.00 0.00 0.00 72 1010.2
20260505004801 58 136 3.0 3.0 0.00 0.00 0.00 73 1010.3
20260505004256 58 249 3.0 6.0 0.00 0.00 0.00 73 1010.1
20260505003754 58 289 0.0 1.0 0.00 0.00 0.00 73 1010.1
20260505003252 58 303 2.0 3.0 0.00 0.00 0.00 73 1009.9
20260505002748 58 228 5.0 7.0 0.00 0.00 0.00 73 1009.9
20260505002245 58 107 3.0 5.0 0.00 0.00 0.00 73 1010.1
20260505001743 57 233 3.0 5.0 0.00 0.00 0.00 73 1009.6
20260505001240 57 134 3.0 3.0 0.00 0.00 0.00 73 1009.9
20260505000737 58 282 3.0 3.0 0.00 0.00 0.00 73 1009.8
20260505000235 57 179 3.0 5.0 0.00 0.00 0.00 73 1009.8
20260504235731 57 275 4.0 7.0 0.00 0.00 0.00 74 1009.8
20260504235227 57 179 4.0 7.0 0.00 0.00 0.00 74 1009.7
20260504234725 57 228 5.0 7.0 0.00 0.00 0.00 74 1009.5
20260504234222 58 299 0.0 1.0 0.00 0.00 0.00 74 1009.5
20260504233718 58 303 3.0 6.0 0.00 0.00 0.00 74 1009.3
20260504233214 58 292 5.0 6.0 0.00 0.00 0.00 74 1009.5
20260504232712 58 244 3.0 5.0 0.00 0.00 0.00 74 1009.4
20260504232208 58 218 5.0 6.0 0.00 0.00 0.00 74 1009.2
20260504231705 58 133 2.0 5.0 0.00 0.00 0.00 74 1009.3
20260504231201 58 83 3.0 3.0 0.00 0.00 0.00 74 1009.3
20260504230657 58 224 3.0 6.0 0.00 0.00 0.00 74 1009.4
20260504230156 59 240 4.0 7.0 0.00 0.00 0.00 72 1009.3